Powrót do katalogu

STARLINK-34212

AktywnyŁącznośćVLEO
NORAD 64139·PAYLOAD·🇺🇸 United States

Wystrzelony May 24, 2025 z Cape Canaveral Space Force Station

Loading…

Następne Przeloty (najbliższe 24 godziny)

TLE

ŚwieżeSource: CelesTrak SupGP

Epoka: Sep 14, 2026, 22:37 UTC

1 64139C 25111S   26257.94284722  .00057122  00000+0  20695-2 0  2570
2 64139  43.0010  88.8950 0001392 275.1520 285.6531 15.27541684    12

Śledź STARLINK-34212 w czasie rzeczywistym z AllMySat

Download on the App Store